Location: Atherton
(17.2661°S, 145.4859°E)
Time: 01:08:27
(UTC+10:00)

Altair - All Passes

Search period start: 24 June 2025 00:00
Search period end: 04 July 2025 00:00
Orbit: 1502 x 1682 km, 47.2° (Epoch: 23 June)

Date Brightness Start Highest point End Pass type
(mag) Time Alt. Az. Time Alt. Az. Time Alt. Az.
24 Jun - 06:12:19 10° N 06:19:47 24° NE 06:27:18 10° ESE visible
24 Jun - 08:13:58 10° NW 08:24:06 79° SW 08:34:19 10° SE daylight
24 Jun - 10:22:41 10° W 10:30:06 22° SSW 10:37:31 10° SSE daylight
24 Jun - 14:44:13 10° S 14:49:00 14° SSE 14:53:42 10° SE daylight
24 Jun - 16:46:37 10° SSW 16:55:53 50° SE 17:04:46 10° ENE daylight
24 Jun - 18:51:50 10° WSW 19:00:19 39° NW 19:08:36 10° NNE visible
25 Jun - 05:47:43 10° N 05:54:34 21° NE 06:01:28 10° E visible
25 Jun - 07:48:42 10° NW 07:58:50 86° SW 08:09:04 10° SE daylight
25 Jun - 09:56:51 10° W 10:04:39 24° SSW 10:12:28 10° SSE daylight
25 Jun - 14:19:14 10° S 14:23:29 13° SSE 14:27:39 10° SE daylight
25 Jun - 16:21:27 10° SSW 16:30:35 45° SE 16:39:22 10° ENE daylight
25 Jun - 18:26:22 10° WSW 18:35:09 44° NW 18:43:41 10° NNE visible
26 Jun - 05:23:15 10° NNE 05:29:21 18° NE 05:35:30 10° E visible
26 Jun - 07:23:28 10° NW 07:33:34 86° NE 07:43:48 10° SE daylight
26 Jun - 09:31:05 10° W 09:39:14 27° SW 09:47:22 10° SSE daylight
26 Jun - 13:54:17 10° S 13:57:56 12° SSE 14:01:31 10° SE daylight
26 Jun - 15:56:17 10° SSW 16:05:17 41° SE 16:13:55 10° ENE daylight
26 Jun - 18:00:57 10° WSW 18:09:59 49° NW 18:18:43 10° NNE visible
27 Jun - 04:58:58 10° NNE 05:04:08 15° NE 05:09:20 10° E visible
27 Jun - 06:58:16 10° NW 07:08:19 79° NE 07:18:31 10° SE daylight
27 Jun - 09:05:22 10° W 09:13:48 29° SW 09:22:18 10° SSE daylight
27 Jun - 13:29:24 10° S 13:32:22 11° SSE 13:35:17 10° SE daylight
27 Jun - 15:31:08 10° SSW 15:39:58 37° SE 15:48:26 10° ENE daylight
27 Jun - 17:35:34 10° SW 17:44:48 55° NW 17:53:43 10° NNE daylight
28 Jun - 04:35:01 10° NNE 04:38:55 13° NE 04:42:50 10° ENE visible
28 Jun - 06:33:06 10° NNW 06:43:04 72° NE 06:53:13 10° SE daylight
28 Jun - 08:39:42 10° W 08:48:24 32° SW 08:57:11 10° SSE daylight
28 Jun - 10:55:02 10° SSW 10:56:36 10° SSW 10:58:11 10° S daylight
28 Jun - 13:04:37 10° S 13:06:46 11° SSE 13:08:55 10° SSE daylight
28 Jun - 15:06:00 10° SSW 15:14:38 34° SE 15:22:56 10° E daylight
28 Jun - 17:10:12 10° SW 17:19:37 62° NW 17:28:42 10° NNE daylight
29 Jun - 04:12:02 10° NE 04:13:42 10° NE 04:15:20 10° ENE visible
29 Jun - 06:07:58 10° NNW 06:17:49 65° NE 06:27:53 10° SE visible
29 Jun - 08:14:04 10° W 08:23:02 35° SW 08:32:03 10° SSE daylight
29 Jun - 10:28:19 10° SSW 10:30:59 11° SSW 10:33:39 10° S daylight
29 Jun - 12:40:14 10° S 12:41:10 10° SSE 12:42:05 10° SSE daylight
29 Jun - 14:40:52 10° SSW 14:49:17 31° SE 14:57:22 10° E daylight
29 Jun - 16:44:52 10° SW 16:54:26 69° NW 17:03:38 10° NNE daylight
29 Jun - 18:56:36 10° WNW 18:58:23 11° NW 19:00:09 10° NW visible
30 Jun - 05:42:53 10° NNW 05:52:36 58° NE 06:02:31 10° SE visible
30 Jun - 07:48:29 10° WNW 07:57:39 38° SW 08:06:56 10° SSE daylight
30 Jun - 10:01:54 10° SW 10:05:23 12° SSW 10:08:52 10° S daylight
30 Jun - 14:15:45 10° SSW 14:23:55 29° SE 14:31:46 10° E daylight
30 Jun - 16:19:33 10° SW 16:29:14 77° NW 16:38:31 10° NE daylight
30 Jun - 18:29:23 10° W 18:33:11 13° NW 18:36:59 10° NNW visible
01 Jul - 05:17:50 10° NNW 05:27:22 52° NE 05:37:08 10° SE visible
01 Jul - 07:22:56 10° WNW 07:32:17 42° SW 07:41:47 10° SSE daylight
01 Jul - 09:35:36 10° SW 09:39:47 13° SSW 09:43:58 10° S daylight
01 Jul - 13:50:38 10° SSW 13:58:31 26° SE 14:06:07 10° E daylight
01 Jul - 15:54:16 10° SW 16:04:02 84° NW 16:13:22 10° NE daylight
01 Jul - 18:03:00 10° W 18:08:00 15° NW 18:12:57 10° NNW daylight
02 Jul - 04:52:49 10° NNW 05:02:09 47° NE 05:11:42 10° ESE visible
02 Jul - 06:57:26 10° WNW 07:06:57 46° SW 07:16:37 10° SSE daylight
02 Jul - 09:09:25 10° SW 09:14:13 14° SSW 09:19:01 10° S daylight
02 Jul - 13:25:31 10° SSW 13:33:07 24° SSE 13:40:27 10° E daylight
02 Jul - 15:28:59 10° SW 15:38:49 88° SE 15:48:12 10° NE daylight
02 Jul - 17:36:56 10° W 17:42:50 18° NW 17:48:39 10° NNW daylight
03 Jul - 04:27:52 10° NNW 04:36:56 42° NE 04:46:15 10° ESE visible
03 Jul - 06:31:59 10° WNW 06:41:37 51° SW 06:51:28 10° SSE daylight
03 Jul - 08:43:19 10° SW 08:48:39 15° SSW 08:54:01 10° S daylight
03 Jul - 13:00:25 10° SSW 13:07:41 22° SSE 13:14:42 10° ESE daylight
03 Jul - 15:03:44 10° SW 15:13:36 80° SE 15:22:59 10° NE daylight
03 Jul - 17:11:02 10° W 17:17:40 21° NW 17:24:10 10° N daylight
